Flight Briefing for CPX413

Departure Arrival
Tulsa International Airport (KTUL)
Click to view FAA NOTAMS
Miami International Airport (KMIA)
Click to view FAA NOTAMS
Departure Time Arrival Time
N/A N/A
Aircraft Distance
B757-200SF 1016nm
Departure METAR Arrival METAR
KTUL 230653Z 11004KT 10SM BKN043 OVC055 22/21 A2988 RMK AO2 LTG DSNT NE SLP110 T02220211 KMIA 230653Z 09014KT 10SM SCT030TCU BKN038 27/21 A3008 RMK AO2 SLP185 TCU E-SE T02670206
Suggested Route
MAYJI FSM LIT SQS MEI ACORI BULZI NICKI Q81 ENDEW JUULI SSCOT5


View recent IFR Routes data
Notes



Charts and Procedures

Charts for KTUL
No chart available
Charts for KMIA
No chart available

Windy.com Weather Map